Regional Weather Roundup
Issued by NWS

Home | Current Version | Previous Version | Text Only | Print | Product List | Glossary Off
Versions: 1 2 3 4 5 6 7 8 9 10 11 12 13 14 15 16 17 18 19 20 21 22 23 24 25 26 27 28 29 30 31 32 33 34 35 36 37 38 39 40 41 42 43 44 45 46 47 48 49 50

000
ASUS43 KBIS 161910
RWRND

NORTH DAKOTA REGIONAL WEATHER ROUNDUP
NATIONAL WEATHER SERVICE BISMARCK ND
200 PM CDT WED AUG 16 2017

NOTE: "FAIR" INDICATES FEW OR NO CLOUDS BELOW 12,000 FEET WITH NO
SIGNIFICANT WEATHER AND/OR OBSTRUCTIONS TO VISIBILITY.


NDZ001>003-009>011-017-162000-
NORTHWEST NORTH DAKOTA

CITY           SKY/WX    TMP DP  RH WIND       PRES   REMARKS
WILLISTON      MOSUNNY   77  59  53 W5        29.93F
MINOT          SUNNY     78  50  37 N12       29.92F
MINOT AFB      SUNNY     76  46  33 N8        29.90F
$$

NDZ018>021-031>035-040>046-162000-
SOUTHWEST NORTH DAKOTA

CITY           SKY/WX    TMP DP  RH WIND       PRES   REMARKS
BISMARCK       CLOUDY    75  61  61 N14       29.93S
DICKINSON      MOSUNNY   76  54  46 NE7       29.95F
GARRISON         N/A     76  52  43 NE8       29.92F
HETTINGER ARPT MOSUNNY   76  49  38 N7        29.99
$$

NDZ004>008-012>016-024-026-027-054-162000-
NORTHEAST NORTH DAKOTA

CITY           SKY/WX    TMP DP  RH WIND       PRES   REMARKS
GRAND FORKS    LGT RAIN  67  66  97 N6        29.85F FOG
GRND FRKS AFB  CLOUDY    67  65  96 N6        29.86S
DEVILS LAKE    PTSUNNY   70  61  73 N15       29.89F
$$

NDZ022-023-025-028>030-036>039-047>053-162000-
SOUTHEAST NORTH DAKOTA

CITY           SKY/WX    TMP DP  RH WIND       PRES   REMARKS
FARGO          LGT RAIN  68  67  96 CALM      29.83F
JAMESTOWN      CLOUDY    70  63  78 N12       29.87R
$$





USA.gov is the U.S. government's official web portal to all federal, state and local government web resources and services.